Location: Berg
(48.5667°N, 13.9833°E)
Time: 05:17:11
(UTC+00:00)

CZ-2C R/B - Pass Details

Date: 09 April 2020
Orbit: 785 x 870 km, 98.3° (Epoch: 01 June)

Event Time Altitude Azimuth Distance (km) Brightness Sun altitude
Rises 19:15:55 0° 16° (NNE) 3,290 6.0 -14.4°
Reaches altitude 10° 19:18:16 10° 19° (NNE) 2,356 5.2 -14.8°
Maximum altitude 19:23:25 66° 102° (ESE) 864 2.5 -15.5°
Drops below altitude 10° 19:28:36 10° 184° (S) 2,361 4.8 -16.2°
Sets 19:30:57 0° 188° (S) 3,296 5.5 -16.5°
